QPF
0.00 0.00 0.00 0.00 0.00 0.00 0.00 0.00 0.00 0.00 0.00 0.00 0.00 0.00 0.00 0.00 0.00 0.01 0.01 0.01 0.01 0.01 0.01 0.01 0.01 0.01 0.01 0.01 0.01 0.02 0.03 0.03 0.03 0.02 0.01 0.01 0.01 0.01 0.02 0.02 0.02 0.02 0.03
0.00 0.00 0.00 0.00 0.00 0.00 0.00 0.00 0.00 0.00 0.00 0.00 0.00 0.00 0.00 0.00 0.00 0.01 0.01 0.01 0.01 0.01 0.01 0.01 0.01 0.01 0.02 0.02 0.02 0.02 0.03 0.03 0.03 0.02 0.01 0.01 0.01 0.01 0.02 0.03 0.03 0.04 0.04
0.00 0.00 0.00 0.00 0.00 0.00 0.00 0.00 0.00 0.00 0.00 0.00 0.00 0.00 0.00 0.00 0.01 0.01 0.01 0.01 0.01 0.01 0.01 0.01 0.01 0.01 0.02 0.02 0.02 0.02 0.02 0.03 0.03 0.03 0.03 0.02 0.03 0.03 0.04 0.04 0.05 0.05 0.05
0.00 0.00 0.00 0.00 0.00 0.00 0.00 0.00 0.00 0.00 0.00 0.00 0.00 0.00 0.00 0.01 0.01 0.01 0.01 0.01 0.01 0.01 0.01 0.01 0.01 0.01 0.01 0.01 0.02 0.02 0.02 0.03 0.04 0.05 0.04 0.05 0.05 0.04 0.05 0.05 0.06 0.05 0.04
0.00 0.00 0.00 0.00 0.00 0.00 0.00 0.00 0.00 0.00 0.00 0.00 0.00 0.00 0.01 0.01 0.01 0.01 0.01 0.01 0.02 0.02 0.01 0.01 0.01 0.02 0.02 0.02 0.02 0.02 0.02 0.03 0.04 0.05 0.05 0.05 0.05 0.05 0.05 0.05 0.05 0.05 0.05
0.00 0.00 0.00 0.00 0.00 0.00 0.00 0.00 0.00 0.00 0.00 0.00 0.01 0.01 0.01 0.01 0.02 0.02 0.01 0.01 0.01 0.01 0.01 0.01 0.01 0.02 0.02 0.02 0.02 0.02 0.03 0.03 0.04 0.05 0.05 0.04 0.04 0.04 0.04 0.04 0.04 0.05 0.04
0.00 0.00 0.00 0.00 0.00 0.00 0.00 0.00 0.00 0.00 0.00 0.00 0.00 0.01 0.01 0.01 0.02 0.02 0.02 0.02 0.02 0.02 0.01 0.01 0.01 0.01 0.02 0.01 0.02 0.03 0.04 0.05 0.05 0.05 0.04 0.03 0.03 0.03 0.04 0.05 0.04 0.04 0.04
0.00 0.00 0.00 0.00 0.00 0.00 0.00 0.00 0.00 0.00 0.00 0.00 0.01 0.01 0.01 0.01 0.02 0.02 0.02 0.02 0.02 0.02 0.01 0.01 0.01 0.01 0.01 0.02 0.02 0.02 0.02 0.03 0.04 0.04 0.03 0.03 0.03 0.03 0.03 0.04 0.04 0.05 0.05
0.00 0.00 0.00 0.00 0.01 0.00 0.00 0.00 0.00 0.00 0.00 0.00 0.01 0.01 0.01 0.01 0.02 0.02 0.02 0.01 0.01 0.01 0.01 0.01 0.01 0.01 0.02 0.03 0.02 0.02 0.02 0.02 0.03 0.03 0.03 0.03 0.03 0.03 0.03 0.03 0.03 0.04 0.04
0.00 0.00 0.00 0.00 0.00 0.00 0.00 0.00 0.00 0.00 0.00 0.00 0.00 0.00 0.01 0.01 0.02 0.02 0.02 0.01 0.01 0.01 0.01 0.01 0.02 0.02 0.02 0.03 0.02 0.01 0.01 0.01 0.01 0.01 0.02 0.02 0.02 0.02 0.04 0.03 0.02 0.03 0.03
0.00 0.00 0.00 0.00 0.00 0.00 0.00 0.00 0.00 0.00 0.00 0.00 0.00 0.00 0.00 0.01 0.01 0.02 0.02 0.01 0.01 0.01 0.01 0.01 0.01 0.02 0.02 0.02 0.02 0.01 0.01 0.01 0.01 0.01 0.02 0.02 0.01 0.01 0.02 0.02 0.02 0.02 0.02
0.00 0.00 0.00 0.00 0.00 0.00 0.00 0.00 0.00 0.00 0.00 0.01 0.01 0.00 0.00 0.01 0.01 0.01 0.01 0.01 0.01 0.01 0.01 0.01 0.01 0.02 0.02 0.01 0.01 0.02 0.02 0.02 0.01 0.01 0.02 0.01 0.01 0.01 0.01 0.01 0.01 0.01 0.01
0.00 0.00 0.00 0.00 0.00 0.00 0.00 0.00 0.00 0.01 0.00 0.00 0.00 0.00 0.00 0.00 0.01 0.01 0.01 0.01 0.01 0.01 0.01 0.02 0.02 0.02 0.01 0.01 0.01 0.02 0.02 0.01 0.01 0.01 0.01 0.01 0.01 0.01 0.01 0.01 0.01 0.01 0.01
0.00 0.00 0.01 0.01 0.01 0.01 0.01 0.01 0.01 0.01 0.01 0.00 0.00 0.00 0.00 0.00 0.00 0.00 0.01 0.01 0.01 0.01 0.01 0.01 0.02 0.01 0.01 0.01 0.01 0.01 0.01 0.01 0.01 0.01 0.01 0.01 0.01 0.01 0.01 0.01 0.01 0.01 0.02
0.01 0.01 0.01 0.01 0.01 0.01 0.01 0.01 0.01 0.01 0.01 0.01 0.01 0.01 0.01 0.01 0.01 0.01 0.01 0.01 0.01 0.01 0.01 0.01 0.01 0.01 0.01 0.00 0.01 0.01 0.01 0.01 0.01 0.01 0.01 0.01 0.01 0.01 0.01 0.01 0.01 0.01 0.01
0.02 0.01 0.01 0.01 0.01 0.01 0.01 0.01 0.02 0.02 0.02 0.02 0.02 0.02 0.01 0.01 0.01 0.01 0.01 0.01 0.01 0.02 0.01 0.01 0.01 0.00 0.00 0.00 0.00 0.01 0.01 0.01 0.01 0.01 0.01 0.01 0.01 0.01 0.01 0.01 0.01 0.01 0.01
0.03 0.03 0.02 0.02 0.02 0.02 0.02 0.02 0.02 0.02 0.02 0.02 0.02 0.02 0.02 0.02 0.02 0.02 0.02 0.02 0.02 0.02 0.01 0.01 0.01 0.01 0.01 0.01 0.01 0.01 0.01 0.01 0.01 0.01 0.01 0.01 0.01 0.01 0.01 0.01 0.01 0.01 0.01
0.04 0.04 0.04 0.04 0.04 0.04 0.03 0.03 0.03 0.02 0.02 0.03 0.03 0.03 0.03 0.03 0.03 0.03 0.03 0.03 0.03 0.03 0.02 0.02 0.02 0.02 0.02 0.01 0.02 0.01 0.01 0.01 0.02 0.02 0.01 0.01 0.01 0.01 0.01 0.01 0.01 0.01 0.01
0.06 0.06 0.06 0.06 0.06 0.06 0.05 0.05 0.04 0.04 0.04 0.04 0.04 0.04 0.04 0.04 0.05 0.05 0.05 0.04 0.03 0.03 0.03 0.03 0.03 0.03 0.03 0.03 0.03 0.03 0.03 0.02 0.02 0.02 0.02 0.02 0.02 0.02 0.01 0.01 0.01 0.01 0.01
0.06 0.07 0.07 0.08 0.08 0.09 0.09 0.08 0.08 0.07 0.07 0.07 0.07 0.07 0.07 0.07 0.07 0.06 0.06 0.05 0.05 0.05 0.05 0.05 0.05 0.05 0.04 0.04 0.04 0.04 0.04 0.03 0.03 0.03 0.02 0.02 0.02 0.02 0.02 0.01 0.01 0.01 0.01
0.05 0.05 0.06 0.07 0.08 0.09 0.10 0.11 0.11 0.11 0.11 0.11 0.11 0.11 0.10 0.10 0.09 0.08 0.07 0.07 0.07 0.06 0.06 0.06 0.05 0.05 0.05 0.04 0.04 0.04 0.04 0.03 0.03 0.03 0.03 0.02 0.02 0.02 0.02 0.02 0.02 0.02 0.01
0.06 0.06 0.06 0.07 0.07 0.08 0.09 0.10 0.11 0.12 0.12 0.12 0.11 0.11 0.11 0.11 0.10 0.10 0.10 0.09 0.08 0.07 0.07 0.06 0.06 0.06 0.05 0.05 0.05 0.04 0.04 0.04 0.04 0.03 0.03 0.03 0.02 0.02 0.02 0.02 0.02 0.02 0.02
0.06 0.06 0.07 0.07 0.08 0.09 0.09 0.10 0.11 0.12 0.12 0.13 0.13 0.12 0.12 0.11 0.10 0.10 0.09 0.09 0.08 0.08 0.07 0.07 0.07 0.06 0.06 0.05 0.05 0.04 0.04 0.04 0.03 0.03 0.03 0.03 0.02 0.02 0.02 0.02 0.02 0.02 0.02
0.05 0.06 0.07 0.07 0.08 0.09 0.09 0.10 0.11 0.11 0.12 0.12 0.13 0.12 0.12 0.11 0.10 0.10 0.09 0.09 0.09 0.08 0.08 0.07 0.06 0.06 0.05 0.05 0.05 0.04 0.04 0.04 0.03 0.03 0.03 0.03 0.02 0.02 0.02 0.02 0.02 0.02 0.02
0.05 0.05 0.06 0.07 0.07 0.08 0.09 0.10 0.10 0.11 0.11 0.12 0.12 0.12 0.12 0.11 0.11 0.10 0.10 0.09 0.09 0.08 0.08 0.07 0.07 0.06 0.05 0.04 0.04 0.04 0.03 0.03 0.03 0.02 0.02 0.02 0.02 0.02 0.02 0.02 0.02 0.02 0.02
0.04 0.05 0.05 0.06 0.07 0.08 0.08 0.09 0.10 0.10 0.11 0.11 0.12 0.12 0.11 0.11 0.11 0.10 0.10 0.09 0.08 0.08 0.07 0.06 0.06 0.05 0.04 0.03 0.03 0.02 0.02 0.02 0.02 0.02 0.02 0.02 0.02 0.02 0.02 0.02 0.02 0.02 0.01
MSLP
1011.52 1011.38 1011.28 1011.19 1011.12 1011.07 1011.02 1010.99 1010.99 1011.02 1011.09 1011.21 1011.37 1011.57 1011.79 1012.05 1012.32 1012.60 1012.89 1013.20 1013.51 1013.84 1014.17 1014.51 1014.84 1015.16 1015.46 1015.74 1016.00 1016.23 1016.46 1016.67 1016.89 1017.12 1017.37 1017.64 1017.92 1018.22 1018.53 1018.84 1019.14 1019.42 1019.66
1011.48 1011.20 1010.96 1010.75 1010.57 1010.42 1010.30 1010.21 1010.15 1010.13 1010.15 1010.22 1010.33 1010.47 1010.65 1010.87 1011.11 1011.38 1011.67 1011.99 1012.32 1012.66 1013.02 1013.36 1013.70 1014.03 1014.34 1014.63 1014.90 1015.16 1015.41 1015.67 1015.93 1016.22 1016.51 1016.83 1017.16 1017.50 1017.85 1018.19 1018.52 1018.82 1019.10
1011.56 1011.17 1010.81 1010.48 1010.19 1009.94 1009.73 1009.55 1009.42 1009.33 1009.27 1009.27 1009.31 1009.39 1009.52 1009.69 1009.91 1010.17 1010.46 1010.78 1011.14 1011.50 1011.86 1012.22 1012.57 1012.90 1013.21 1013.50 1013.78 1014.06 1014.34 1014.62 1014.92 1015.24 1015.57 1015.92 1016.29 1016.66 1017.04 1017.41 1017.77 1018.11 1018.43
1011.73 1011.26 1010.80 1010.37 1009.98 1009.62 1009.30 1009.02 1008.78 1008.59 1008.45 1008.35 1008.30 1008.31 1008.38 1008.50 1008.69 1008.93 1009.22 1009.56 1009.92 1010.30 1010.69 1011.06 1011.42 1011.75 1012.07 1012.37 1012.65 1012.93 1013.22 1013.52 1013.84 1014.18 1014.53 1014.90 1015.29 1015.69 1016.09 1016.50 1016.89 1017.28 1017.64
1011.98 1011.45 1010.91 1010.39 1009.89 1009.42 1008.99 1008.59 1008.23 1007.92 1007.66 1007.45 1007.31 1007.23 1007.23 1007.30 1007.45 1007.67 1007.96 1008.30 1008.67 1009.07 1009.47 1009.86 1010.23 1010.57 1010.90 1011.20 1011.50 1011.79 1012.08 1012.39 1012.72 1013.06 1013.42 1013.80 1014.20 1014.61 1015.04 1015.47 1015.91 1016.34 1016.76
1012.26 1011.69 1011.10 1010.50 1009.91 1009.32 1008.76 1008.23 1007.74 1007.30 1006.90 1006.58 1006.33 1006.16 1006.08 1006.09 1006.20 1006.39 1006.67 1007.01 1007.39 1007.80 1008.21 1008.62 1009.01 1009.37 1009.71 1010.03 1010.34 1010.64 1010.95 1011.26 1011.59 1011.94 1012.30 1012.68 1013.07 1013.49 1013.94 1014.40 1014.88 1015.36 1015.84
1012.54 1011.95 1011.32 1010.65 1009.96 1009.27 1008.58 1007.92 1007.29 1006.70 1006.18 1005.73 1005.37 1005.11 1004.96 1004.91 1004.98 1005.15 1005.40 1005.74 1006.12 1006.53 1006.96 1007.38 1007.78 1008.17 1008.53 1008.88 1009.21 1009.54 1009.86 1010.19 1010.52 1010.86 1011.22 1011.60 1012.00 1012.42 1012.88 1013.38 1013.90 1014.43 1014.97
1012.77 1012.18 1011.52 1010.79 1010.01 1009.21 1008.40 1007.60 1006.83 1006.12 1005.47 1004.91 1004.46 1004.12 1003.90 1003.80 1003.83 1003.97 1004.21 1004.53 1004.91 1005.32 1005.75 1006.19 1006.61 1007.02 1007.42 1007.80 1008.16 1008.52 1008.87 1009.22 1009.56 1009.91 1010.27 1010.65 1011.05 1011.49 1011.97 1012.49 1013.04 1013.63 1014.23
1012.93 1012.34 1011.64 1010.85 1010.00 1009.09 1008.17 1007.25 1006.36 1005.53 1004.78 1004.12 1003.59 1003.19 1002.92 1002.79 1002.79 1002.91 1003.13 1003.44 1003.81 1004.22 1004.66 1005.10 1005.54 1005.98 1006.41 1006.82 1007.23 1007.63 1008.01 1008.39 1008.76 1009.13 1009.50 1009.88 1010.30 1010.74 1011.24 1011.79 1012.38 1013.01 1013.65
1012.98 1012.38 1011.65 1010.81 1009.87 1008.88 1007.85 1006.82 1005.83 1004.90 1004.07 1003.35 1002.77 1002.33 1002.04 1001.89 1001.88 1001.98 1002.19 1002.49 1002.85 1003.26 1003.69 1004.14 1004.60 1005.06 1005.52 1005.98 1006.43 1006.88 1007.31 1007.73 1008.13 1008.52 1008.92 1009.32 1009.75 1010.21 1010.73 1011.30 1011.91 1012.57 1013.25
1012.92 1012.30 1011.53 1010.63 1009.62 1008.54 1007.42 1006.30 1005.23 1004.23 1003.34 1002.58 1001.97 1001.51 1001.22 1001.07 1001.06 1001.16 1001.38 1001.67 1002.02 1002.42 1002.85 1003.31 1003.78 1004.27 1004.76 1005.26 1005.77 1006.26 1006.74 1007.21 1007.65 1008.08 1008.51 1008.94 1009.38 1009.87 1010.40 1010.98 1011.62 1012.30 1013.00
1012.76 1012.10 1011.29 1010.32 1009.24 1008.07 1006.87 1005.68 1004.54 1003.48 1002.55 1001.77 1001.15 1000.70 1000.42 1000.28 1000.29 1000.41 1000.62 1000.92 1001.27 1001.67 1002.10 1002.57 1003.05 1003.56 1004.09 1004.64 1005.19 1005.73 1006.27 1006.79 1007.28 1007.75 1008.22 1008.67 1009.15 1009.65 1010.20 1010.79 1011.44 1012.13 1012.83
1012.52 1011.82 1010.94 1009.90 1008.74 1007.50 1006.22 1004.96 1003.76 1002.66 1001.70 1000.91 1000.29 999.86 999.59 999.48 999.50 999.64 999.87 1000.17 1000.53 1000.94 1001.38 1001.85 1002.36 1002.89 1003.46 1004.04 1004.64 1005.24 1005.83 1006.40 1006.95 1007.47 1007.98 1008.47 1008.97 1009.50 1010.06 1010.66 1011.31 1011.99 1012.69
1012.23 1011.46 1010.51 1009.40 1008.16 1006.84 1005.49 1004.17 1002.92 1001.78 1000.80 999.99 999.38 998.95 998.70 998.61 998.66 998.81 999.06 999.37 999.74 1000.15 1000.61 1001.10 1001.63 1002.19 1002.79 1003.42 1004.07 1004.72 1005.37 1006.00 1006.60 1007.17 1007.72 1008.25 1008.78 1009.33 1009.90 1010.51 1011.16 1011.83 1012.52
1011.93 1011.08 1010.05 1008.85 1007.54 1006.14 1004.73 1003.35 1002.05 1000.88 999.88 999.06 998.44 998.01 997.77 997.69 997.74 997.91 998.17 998.49 998.87 999.30 999.76 1000.27 1000.83 1001.43 1002.06 1002.74 1003.43 1004.14 1004.84 1005.52 1006.18 1006.80 1007.40 1007.97 1008.54 1009.11 1009.70 1010.31 1010.95 1011.62 1012.28
1011.62 1010.68 1009.56 1008.29 1006.90 1005.45 1003.98 1002.55 1001.22 1000.02 998.99 998.15 997.52 997.09 996.84 996.75 996.80 996.97 997.23 997.56 997.94 998.38 998.86 999.39 999.97 1000.60 1001.28 1001.99 1002.73 1003.48 1004.23 1004.97 1005.68 1006.35 1007.00 1007.61 1008.22 1008.82 1009.42 1010.04 1010.68 1011.33 1011.98
1011.28 1010.26 1009.07 1007.73 1006.29 1004.80 1003.30 1001.84 1000.49 999.27 998.22 997.37 996.72 996.27 996.01 995.91 995.95 996.10 996.35 996.67 997.06 997.50 997.99 998.53 999.13 999.78 1000.48 1001.22 1002.00 1002.79 1003.59 1004.37 1005.12 1005.85 1006.54 1007.19 1007.83 1008.46 1009.09 1009.72 1010.35 1010.99 1011.62
1010.90 1009.81 1008.57 1007.20 1005.73 1004.23 1002.73 1001.28 999.92 998.71 997.66 996.81 996.15 995.69 995.41 995.29 995.30 995.44 995.66 995.97 996.34 996.77 997.25 997.79 998.39 999.05 999.76 1000.53 1001.32 1002.14 1002.97 1003.78 1004.57 1005.34 1006.06 1006.76 1007.43 1008.09 1008.73 1009.37 1010.01 1010.64 1011.26
1010.46 1009.33 1008.06 1006.69 1005.24 1003.77 1002.30 1000.90 999.59 998.41 997.40 996.56 995.91 995.45 995.16 995.02 995.01 995.12 995.32 995.59 995.93 996.34 996.80 997.32 997.90 998.54 999.24 1000.00 1000.79 1001.62 1002.46 1003.29 1004.10 1004.89 1005.65 1006.38 1007.07 1007.75 1008.41 1009.06 1009.70 1010.32 1010.93
1009.96 1008.82 1007.57 1006.23 1004.85 1003.45 1002.07 1000.74 999.52 998.42 997.46 996.68 996.07 995.62 995.34 995.19 995.17 995.25 995.42 995.66 995.96 996.31 996.73 997.21 997.74 998.35 999.02 999.74 1000.51 1001.32 1002.14 1002.97 1003.79 1004.59 1005.36 1006.10 1006.81 1007.50 1008.16 1008.81 1009.45 1010.07 1010.67
1009.42 1008.31 1007.11 1005.86 1004.58 1003.29 1002.04 1000.84 999.73 998.74 997.89 997.18 996.64 996.24 995.98 995.85 995.82 995.88 996.02 996.21 996.46 996.77 997.12 997.53 998.01 998.54 999.15 999.82 1000.54 1001.30 1002.10 1002.90 1003.70 1004.49 1005.25 1005.99 1006.70 1007.38 1008.04 1008.69 1009.31 1009.92 1010.51
1008.91 1007.86 1006.76 1005.63 1004.48 1003.33 1002.23 1001.18 1000.22 999.37 998.64 998.05 997.59 997.26 997.05 996.94 996.92 996.98 997.09 997.24 997.44 997.68 997.96 998.30 998.69 999.15 999.67 1000.26 1000.91 1001.61 1002.35 1003.10 1003.87 1004.63 1005.37 1006.08 1006.77 1007.44 1008.08 1008.70 1009.31 1009.90 1010.48
1008.50 1007.55 1006.57 1005.58 1004.58 1003.60 1002.65 1001.77 1000.97 1000.27 999.67 999.20 998.84 998.59 998.45 998.38 998.38 998.44 998.53 998.65 998.80 998.98 999.19 999.44 999.75 1000.11 1000.55 1001.05 1001.62 1002.24 1002.90 1003.60 1004.30 1005.01 1005.71 1006.39 1007.05 1007.68 1008.29 1008.89 1009.47 1010.04 1010.60
1008.27 1007.45 1006.61 1005.76 1004.91 1004.09 1003.30 1002.58 1001.93 1001.37 1000.90 1000.54 1000.28 1000.12 1000.03 1000.01 1000.04 1000.10 1000.19 1000.28 1000.39 1000.51 1000.66 1000.84 1001.06 1001.34 1001.68 1002.10 1002.58 1003.12 1003.71 1004.33 1004.97 1005.62 1006.27 1006.90 1007.51 1008.10 1008.68 1009.24 1009.79 1010.34 1010.87
1008.29 1007.59 1006.89 1006.18 1005.48 1004.79 1004.15 1003.56 1003.03 1002.59 1002.23 1001.97 1001.79 1001.70 1001.66 1001.68 1001.74 1001.81 1001.89 1001.97 1002.04 1002.12 1002.22 1002.34 1002.49 1002.70 1002.97 1003.30 1003.70 1004.17 1004.68 1005.23 1005.81 1006.39 1006.98 1007.56 1008.12 1008.66 1009.20 1009.73 1010.25 1010.77 1011.30
1008.55 1007.99 1007.41 1006.83 1006.25 1005.68 1005.14 1004.66 1004.23 1003.87 1003.59 1003.39 1003.27 1003.22 1003.22 1003.27 1003.34 1003.41 1003.49 1003.55 1003.61 1003.66 1003.73 1003.80 1003.91 1004.06 1004.27 1004.55 1004.88 1005.28 1005.72 1006.21 1006.72 1007.24 1007.77 1008.30 1008.81 1009.31 1009.81 1010.31 1010.81 1011.32 1011.83
Thickness
5657 5659 5661 5663 5664 5665 5666 5667 5667 5667 5666 5664 5663 5661 5659 5655 5651 5646 5643 5640 5637 5634 5631 5627 5625 5620 5616 5612 5607 5603 5599 5595 5596 5598 5590 5585 5579 5574 5568 5563 5557 5551 5546
5646 5648 5650 5652 5653 5655 5657 5659 5659 5659 5659 5658 5656 5655 5653 5651 5647 5643 5640 5636 5633 5630 5627 5623 5620 5615 5612 5608 5603 5600 5596 5591 5588 5589 5584 5577 5572 5566 5561 5555 5549 5544 5538
5633 5635 5638 5640 5642 5645 5647 5648 5649 5650 5650 5650 5648 5647 5647 5645 5642 5639 5636 5632 5629 5627 5623 5619 5616 5610 5608 5603 5599 5595 5591 5586 5582 5580 5579 5571 5563 5556 5550 5545 5540 5534 5529
5619 5622 5625 5628 5630 5633 5635 5636 5637 5638 5639 5640 5640 5640 5639 5638 5636 5633 5630 5627 5624 5622 5618 5615 5611 5607 5604 5599 5594 5590 5584 5579 5575 5572 5570 5563 5555 5547 5540 5536 5530 5525 5520
5603 5608 5612 5615 5617 5619 5622 5624 5626 5627 5629 5630 5630 5630 5630 5629 5628 5625 5622 5620 5617 5614 5612 5609 5606 5602 5598 5593 5588 5584 5578 5573 5568 5564 5561 5556 5549 5538 5534 5530 5524 5518 5512
5587 5593 5597 5600 5603 5605 5608 5610 5612 5615 5616 5617 5619 5620 5620 5621 5620 5616 5613 5610 5608 5606 5604 5601 5598 5593 5588 5583 5579 5575 5571 5567 5563 5558 5555 5550 5545 5538 5530 5522 5515 5508 5505
5569 5576 5579 5582 5586 5589 5592 5595 5598 5601 5603 5605 5607 5608 5610 5611 5609 5606 5602 5601 5599 5598 5596 5592 5588 5585 5579 5575 5570 5565 5561 5558 5556 5552 5549 5546 5539 5532 5523 5515 5508 5503 5499
5551 5557 5561 5564 5569 5573 5576 5580 5584 5586 5588 5591 5594 5596 5597 5599 5597 5594 5591 5588 5589 5589 5587 5584 5580 5576 5571 5566 5561 5556 5552 5548 5545 5541 5539 5537 5531 5525 5518 5511 5503 5493 5485
5532 5537 5541 5545 5550 5555 5559 5564 5567 5569 5573 5576 5578 5581 5583 5585 5584 5581 5577 5576 5577 5577 5575 5573 5570 5566 5562 5555 5550 5546 5541 5537 5534 5530 5526 5523 5518 5513 5506 5498 5489 5482 5476
5513 5517 5522 5526 5532 5538 5544 5547 5550 5552 5556 5558 5561 5565 5567 5570 5570 5568 5565 5564 5564 5564 5561 5559 5556 5554 5550 5545 5541 5536 5532 5527 5519 5515 5511 5508 5504 5499 5494 5489 5483 5475 5468
5493 5499 5504 5509 5515 5521 5526 5529 5533 5535 5538 5541 5544 5547 5549 5553 5554 5554 5552 5552 5552 5551 5548 5546 5544 5541 5537 5533 5530 5526 5523 5516 5508 5502 5498 5494 5489 5484 5479 5475 5471 5466 5460
5473 5480 5486 5491 5496 5501 5505 5510 5514 5516 5519 5524 5527 5531 5534 5535 5537 5538 5538 5537 5538 5536 5536 5534 5531 5527 5524 5520 5516 5514 5509 5502 5496 5490 5486 5481 5476 5471 5466 5461 5457 5452 5448
5455 5462 5467 5472 5476 5481 5485 5490 5494 5497 5501 5507 5510 5514 5518 5519 5520 5521 5521 5521 5521 5520 5520 5519 5516 5512 5509 5505 5502 5498 5493 5488 5483 5479 5475 5470 5464 5458 5451 5446 5440 5435 5430
5436 5442 5448 5453 5458 5462 5465 5470 5475 5479 5482 5486 5490 5494 5498 5501 5503 5504 5503 5503 5503 5502 5502 5500 5498 5495 5492 5489 5485 5482 5478 5475 5471 5467 5462 5454 5448 5442 5437 5432 5426 5420 5414
5415 5422 5428 5433 5438 5443 5447 5451 5456 5460 5462 5466 5470 5473 5477 5482 5486 5486 5486 5486 5487 5486 5484 5481 5479 5477 5476 5473 5469 5466 5462 5459 5455 5451 5446 5440 5434 5428 5423 5418 5413 5407 5402
5396 5403 5408 5413 5418 5422 5427 5432 5437 5441 5445 5447 5450 5453 5457 5461 5465 5467 5469 5469 5469 5468 5466 5466 5465 5463 5462 5459 5455 5450 5446 5443 5440 5435 5431 5426 5421 5416 5409 5403 5398 5394 5389
5375 5382 5388 5393 5398 5403 5407 5412 5417 5423 5426 5429 5433 5436 5439 5442 5445 5447 5449 5450 5450 5449 5449 5450 5449 5448 5445 5442 5438 5435 5431 5427 5423 5419 5415 5411 5406 5401 5395 5390 5385 5380 5374
5356 5363 5368 5374 5379 5383 5387 5391 5396 5401 5407 5410 5413 5417 5420 5423 5425 5426 5428 5429 5428 5429 5430 5430 5429 5428 5427 5424 5422 5418 5414 5410 5406 5403 5399 5395 5391 5386 5381 5376 5371 5365 5359
5338 5344 5350 5355 5360 5364 5368 5372 5376 5380 5386 5390 5393 5396 5399 5402 5405 5405 5407 5408 5410 5410 5410 5410 5409 5407 5406 5404 5402 5400 5398 5394 5390 5387 5383 5378 5374 5370 5365 5361 5355 5350 5344
5319 5325 5330 5335 5340 5344 5349 5353 5357 5361 5365 5368 5372 5375 5378 5381 5382 5384 5385 5386 5387 5388 5388 5388 5388 5387 5386 5384 5382 5380 5377 5375 5372 5369 5365 5361 5357 5353 5349 5344 5339 5334 5328
5300 5306 5311 5316 5320 5324 5328 5332 5336 5339 5343 5347 5350 5353 5358 5359 5360 5361 5362 5362 5364 5365 5366 5366 5366 5365 5365 5363 5362 5359 5357 5354 5352 5349 5345 5342 5338 5334 5330 5326 5321 5316 5311
5281 5286 5291 5296 5300 5304 5307 5310 5314 5318 5321 5324 5326 5330 5334 5335 5336 5337 5338 5338 5339 5340 5342 5343 5343 5342 5343 5342 5341 5339 5337 5334 5332 5329 5326 5322 5318 5315 5311 5307 5303 5298 5292
5262 5266 5271 5275 5279 5283 5287 5290 5293 5296 5299 5301 5304 5307 5310 5312 5313 5314 5315 5316 5316 5317 5318 5319 5319 5319 5319 5319 5318 5317 5315 5313 5311 5309 5306 5302 5299 5295 5292 5288 5284 5279 5273
5242 5246 5250 5254 5258 5261 5265 5268 5270 5273 5276 5278 5281 5283 5285 5287 5289 5290 5291 5293 5294 5294 5295 5295 5295 5295 5296 5296 5295 5293 5292 5291 5290 5288 5286 5283 5279 5275 5272 5268 5264 5259 5254
5223 5226 5229 5233 5236 5239 5243 5246 5249 5251 5253 5256 5258 5260 5262 5263 5265 5266 5267 5269 5270 5271 5271 5271 5271 5271 5272 5272 5272 5271 5270 5269 5269 5267 5265 5263 5260 5256 5252 5248 5244 5239 5233
5205 5208 5210 5213 5215 5218 5221 5224 5226 5229 5231 5233 5235 5236 5238 5240 5241 5242 5244 5246 5247 5247 5248 5248 5248 5248 5248 5249 5249 5249 5249 5248 5248 5247 5245 5242 5239 5236 5232 5228 5223 5218 5213